Location: Gull Harbor
(47.1000°N, 122.9000°W)
Time: 16:18:09
(UTC-08:00)

BlueWalker 3 - Pass Details

Date: 24 December 2025
Orbit: 452 x 463 km, 53.2° (Epoch: 13 January)

Event Time Altitude Azimuth Distance (km) Brightness Sun altitude
Exits shadow 05:21:05 32° 139° (SE) 800 3.3 -25.3°
Maximum altitude 05:21:05 32° 139° (SE) 800 3.3 -25.3°
Drops below altitude 10° 05:24:19 10° 75° (ENE) 1,595 5.3 -24.7°
Sets 05:26:36 0° 65° (ENE) 2,475 6.3 -24.3°
